User: anonymous   Login
Location: Caltech
(34.1382°N, 118.1253°W)
Time: 14:32:28
(UTC-08:00)
Language:

Aureole 3 Rocket - Orbit

View from above orbital plane
View from above orbital plane
View from above satellite
View from above satellite

Ground track
Ground track

The orbit data is extracted from the following two-line orbital elements,

1 12849U 81094B   16040.19123443  .00000579  00000-0  54042-4 0  9994
2 12849  82.4939 185.7002 0904265 302.8941  48.8294 13.49634755675276
Epoch (UTC): 09 February 2016 04:35:22
Eccentricity: 0.0904265
inclination: 82.4939°
perigee height: 400 km
apogee height: 1747 km
right ascension of ascending node: 185.7002°
argument of perigee: 302.8941°
revolutions per day: 13.49634755
mean anomaly at epoch: 48.8294°
orbit number at epoch: 67527

The dashed part of the orbit path shows where the satellite is in the earth's shadow,  

DLR